ARIANE 44LP DEB, 33546

Orbit data source: Space-Track

ARIANE 44LP DEB, 33546 is space debris in HEO originally from a launch on Sun, 11 Dec 1988 UTC launched from the French Guiana (FRGUI). Debris objects in space refer to the collection of defunct objects orbiting the Earth. Examples of debris include non-operational satellites, rocket bodies, and fragments generated from explosions, collisions, or faulty payload assembly.

Loading next visibility...
Identifier
33546, 1988-109V
Orbit
HEO
Country
Flag of FRFR
Related business
Manufacturer
Unknown
Mission
Spacecraft
Bus & Motor
Unknown
Mass
Unknown
Launch date (UTC)
1988-12-11 (37 years ago)
Launch vehicle
Unknown
Launch site
French Guiana (FRGUI)
Object type
Payload
Rocket body
Debris
Shape & HBR
Unknown shape, 1.1 m
Radar Cross Section
Small (<0.1 m²)

Expand to show TLE details & history
Last TLE update: 13 hours ago

TLE from 13 hours ago
0 ARIANE 44LP DEB
1 33546U 88109V   26125.55279647 -.00000090  00000-0 -69691-3 0  9993
2 33546   6.8990 263.1957 7132174   9.5781 315.0045  2.23370610 20489
Epoch: 2026-05-05T13:16Z
TLE epoch observation values (Epoch: 2026-05-05T13:16:01.615Z)
Latitude
-5.83655°
Longitude
77.75866°
Altitude
16,974.259 km
Speed
4.244 km/s
True Right ascension
09h 20m 45s
True Declination
-5° 49' 33"
Sunlit
Object was in daylight at epoch
Visualization orbit readout
Latitude
Unknown
Longitude
Unknown
Altitude
Unknown
Speed
Unknown
Apparent Right ascension
Unknown
Apparent Declination
Unknown
Sunlit
N/A
Visualization observer readout
Local Sidereal Time
09:46:53
Azimuth
Unknown
Elevation
Unknown
Doppler factor
Unknown
Orbital elements
Apogee altitude
35,981.558 km
Perigee altitude
712.629 km
Semi-major axis
24,725.23 km
Eccentricity
0.71322
Inclination
6.899°
RAAN
263.1957°
Arg. of periapsis
9.5781°
True anomaly
227.56534°
Mean anomaly
315.0045°
Eccentric anomaly
274.25266°
Mean motion
0.55826 °/min
Orbital period
644.87 mins
BSTAR
-0.00069691
Loading maneuver chart data...
Computing Atmospheric mass density...
Loading historical data...
Loading historical data...
Loading historical data...
Loading historical data...
Loading historical data...
Loading historical data...
Loading historical data...

Documentation

Showing up to 5 results
|